Theta_e
305 304 304 304 304 304 304 304 304 304 304 305 305 306 309 313 316 322 329 333 334 336 334 338 337 338 340 339 338 336 336 334 333 332 331 331 329 328 328 328 326 325 324
305 304 304 304 304 303 304 303 303 303 303 304 304 305 306 307 309 314 318 328 331 335 336 338 339 338 339 340 339 338 336 335 333 332 332 331 329 328 327 328 327 325 323
304 304 304 303 303 303 303 303 303 302 302 303 303 303 303 304 306 308 312 318 326 332 334 336 337 338 338 338 340 337 337 335 334 332 331 331 330 328 328 327 327 326 325
300 303 303 303 303 303 303 304 304 304 303 302 302 302 302 303 304 306 308 312 318 326 332 333 335 337 338 339 338 338 337 336 335 333 331 331 331 328 328 328 327 327 326
300 300 303 303 302 302 302 303 303 303 303 303 302 302 301 302 302 303 305 307 310 316 325 332 332 335 335 337 339 338 337 337 336 334 332 330 330 329 329 328 328 327 327
300 299 299 299 300 300 301 302 302 303 303 303 303 303 302 302 303 303 305 306 309 311 316 324 331 332 334 334 337 338 337 338 337 335 333 330 330 330 328 328 327 327 327
299 300 299 299 299 300 301 301 300 301 301 301 301 302 301 301 301 302 304 305 305 308 312 319 325 331 331 335 333 335 338 339 339 337 335 333 330 330 329 328 328 328 327
299 299 299 299 300 299 300 300 300 300 300 299 300 302 303 302 301 302 307 309 311 309 310 313 319 325 330 333 336 334 334 336 339 339 336 334 332 331 330 328 328 328 327
298 299 299 300 300 299 299 299 299 299 299 299 299 301 304 303 303 301 302 302 306 316 318 320 319 322 327 331 334 336 334 334 334 339 337 334 332 332 330 329 329 328 327
297 297 298 298 298 299 299 299 299 298 299 299 300 301 302 302 303 303 302 302 303 305 313 317 320 325 327 329 330 334 336 335 334 333 336 334 330 331 331 329 329 327 326
296 296 297 297 297 298 298 298 298 298 298 299 300 301 302 303 302 303 303 303 302 304 307 314 316 317 322 328 329 331 334 334 334 333 334 333 333 331 332 332 328 326 321
296 296 296 296 296 297 297 297 298 298 298 298 300 300 300 302 303 303 303 303 304 305 307 310 310 315 313 320 328 329 332 333 333 333 333 333 334 334 332 329 325 321 318
297 296 297 297 297 297 297 297 298 298 298 299 299 300 300 300 301 301 301 303 304 303 304 307 308 308 311 314 323 328 330 330 331 333 333 333 331 332 328 326 322 318 315
297 296 296 296 296 297 297 297 297 298 298 298 298 299 300 300 300 301 301 302 304 304 304 306 309 312 311 311 320 326 328 328 329 330 332 332 329 328 326 320 318 315 311
296 296 296 296 296 296 296 297 297 298 298 298 298 299 299 300 300 300 301 302 303 305 306 306 311 312 311 312 317 322 328 327 327 329 331 330 327 324 319 316 313 309 307
296 296 296 296 296 296 296 296 297 297 298 298 298 298 299 299 300 300 301 301 302 304 308 306 309 307 308 308 317 321 325 327 326 329 327 324 318 314 312 310 307 305 304
296 296 297 297 296 296 296 296 297 297 297 298 298 298 299 299 300 300 301 301 303 305 307 306 305 305 308 310 314 318 321 319 316 314 313 311 309 307 306 305 304 302 301
296 296 296 297 297 297 297 296 296 297 297 297 298 299 299 300 300 300 301 301 301 304 305 306 304 301 302 305 306 307 307 307 307 306 305 303 302 301 301 300 299 298 298
297 297 297 297 297 296 296 297 297 296 297 297 298 299 299 300 300 300 300 300 301 302 304 306 299 298 299 302 301 302 302 301 301 301 301 300 299 300 299 298 298 298 297
297 297 298 298 298 298 297 297 297 298 297 297 298 298 299 299 299 299 299 300 301 303 304 302 298 294 295 295 295 294 292 293 295 297 298 298 297 298 298 297 297 296 296
297 297 298 298 299 299 299 299 298 296 297 297 298 298 299 299 300 300 300 302 304 305 302 299 295 292 291 291 291 290 290 290 290 291 291 293 294 294 294 294 294 295 296
298 297 297 298 298 299 300 301 299 299 298 299 299 300 299 300 301 301 302 304 306 301 299 297 295 293 290 289 290 290 290 291 290 290 291 290 292 292 293 294 294 294 294
300 299 298 298 298 299 300 301 302 300 299 299 299 299 300 300 301 302 305 306 306 303 298 296 292 290 289 289 289 289 288 288 288 289 290 290 290 291 292 292 293 293 293
299 300 303 299 299 299 301 302 302 302 301 300 300 300 300 302 303 300 300 300 296 294 291 290 289 289 291 292 291 288 288 288 288 289 289 290 290 290 290 291 292 292 292
298 299 299 301 300 301 303 303 303 303 303 302 301 302 303 304 300 297 294 293 291 291 292 291 291 291 290 290 290 289 289 289 289 289 289 290 290 290 290 290 289 290 291
294 294 298 298 298 297 298 298 297 296 298 300 302 304 302 301 299 296 294 293 292 292 292 291 291 290 289 290 289 288 289 289 289 289 289 290 290 291 291 290 290 290 291
Wind_Speed
13 12 13 13 12 10 9 12 13 13 14 14 14 15 16 16 17 17 18 20 23 26 37 32 31 30 30 30 28 27 26 25 23 22 21 19 17 15 14 12 11 9 7
16 15 15 16 15 14 12 11 12 14 15 15 15 15 17 19 19 19 19 18 22 25 32 35 33 31 32 32 31 29 29 29 27 26 23 22 20 18 16 15 13 12 9
20 19 19 18 18 17 16 14 12 13 14 15 16 17 18 19 21 22 21 20 20 24 27 32 34 33 35 36 33 34 34 33 31 29 28 25 24 21 19 17 15 14 11
20 21 20 20 19 19 18 17 13 13 14 16 17 17 18 20 22 24 24 22 22 22 24 28 32 35 37 37 37 36 37 37 35 32 31 28 26 24 22 19 17 15 14
20 20 22 23 22 22 21 20 17 15 16 17 17 18 19 21 24 25 27 26 25 26 26 25 32 32 39 41 39 39 40 40 38 36 33 32 28 26 24 21 19 17 15
24 23 23 23 23 23 23 21 19 17 18 19 18 19 19 21 23 26 27 28 28 28 28 28 28 31 34 39 42 41 42 40 39 40 37 34 30 28 26 24 21 19 17
25 25 26 25 23 22 21 20 19 19 20 18 20 20 21 21 25 25 24 26 29 29 30 29 30 30 36 33 43 46 44 41 40 40 38 35 33 29 28 25 23 21 18
28 27 26 27 26 25 24 22 20 21 21 19 17 19 12 17 20 19 17 22 25 28 30 31 31 31 32 35 33 44 48 47 41 41 43 38 35 31 29 28 25 22 18
28 25 25 27 28 26 25 23 22 22 23 22 20 15 9 11 10 19 21 22 24 20 19 23 30 31 32 34 35 35 46 50 47 42 40 41 34 33 33 30 27 22 20
30 29 29 28 29 29 29 27 25 24 23 22 20 22 22 22 13 14 22 24 25 24 19 17 20 27 30 33 37 34 32 44 48 47 36 36 34 41 38 32 26 22 22
30 29 30 30 31 32 31 30 27 25 24 23 22 20 21 20 22 12 14 13 23 21 20 19 15 21 22 29 35 35 36 37 37 47 46 50 43 43 39 32 26 26 24
32 30 28 28 29 29 29 28 26 25 25 25 24 23 22 14 13 12 12 14 16 25 21 22 24 19 22 26 32 36 31 31 33 34 40 44 32 45 36 29 28 26 21
31 30 29 28 28 28 28 26 27 25 24 24 25 25 23 22 22 23 20 13 13 25 24 21 25 26 23 27 23 35 30 28 28 30 34 43 28 33 31 32 30 25 21
32 31 30 29 29 28 28 28 28 27 26 25 26 27 24 22 21 21 22 16 13 13 23 24 23 22 26 27 27 26 30 26 26 26 34 36 36 32 39 35 29 26 20
31 32 31 30 28 28 28 27 27 28 26 25 25 25 25 25 23 22 21 21 16 12 13 18 8 11 14 22 28 27 27 27 25 23 30 35 36 44 36 32 28 22 19
30 29 31 29 27 28 27 27 25 25 26 26 26 25 25 25 24 22 19 21 24 19 13 21 16 10 20 28 24 28 26 21 20 30 36 43 40 35 32 29 26 24 20
28 27 27 26 24 26 25 24 25 25 25 25 26 25 23 23 23 22 20 22 21 23 11 18 6 16 13 12 12 24 25 33 34 43 41 36 33 31 29 28 25 23 20
28 26 25 25 22 24 23 20 21 23 26 26 24 23 23 22 22 22 22 24 23 21 17 12 1 3 8 5 13 38 33 43 40 38 38 36 32 27 25 25 24 22 19
26 25 24 23 23 23 22 22 20 21 23 24 22 22 22 22 22 23 22 22 21 23 21 14 3 4 6 10 23 30 32 42 40 38 36 34 32 27 25 21 23 20 18
23 22 23 22 22 21 21 23 21 19 20 20 20 20 22 21 23 23 21 22 22 21 20 12 13 6 13 14 18 28 33 30 35 32 30 28 29 27 25 21 20 18 17
18 15 17 16 15 16 17 20 19 19 18 17 18 19 20 22 24 23 21 22 22 13 18 15 15 11 10 10 9 20 31 33 35 31 32 34 32 27 22 18 15 13 16
5 9 11 13 14 14 14 19 19 18 18 18 16 16 17 19 21 24 23 25 16 26 19 16 15 15 18 18 19 26 22 25 8 25 30 28 27 26 19 20 15 13 14
19 5 7 9 10 12 14 15 15 20 19 18 16 15 14 15 15 15 19 17 16 12 20 26 25 22 26 20 23 28 24 24 19 22 22 19 17 20 22 19 14 14 12
34 32 18 8 7 7 8 10 12 14 16 20 18 16 15 12 12 12 19 31 29 25 28 33 38 39 40 30 30 30 30 29 26 19 10 12 14 17 12 14 17 15 13
35 40 43 41 4 3 3 5 5 7 13 16 15 13 12 8 25 29 37 35 33 30 33 36 37 33 28 30 35 34 22 21 14 12 15 12 12 14 13 12 11 14 14
37 36 39 42 39 37 32 30 30 30 26 31 33 10 16 27 31 36 40 35 31 27 31 36 36 34 30 25 22 22 18 19 18 10 11 10 12 6 5 8 9 10 10
Wind_Direction
304 305 304 307 308 308 314 317 316 316 312 307 304 299 294 289 287 285 286 281 268 250 241 243 241 240 239 236 233 231 228 223 223 224 224 218 217 216 213 210 207 204 215
288 292 293 295 297 300 302 305 308 311 308 305 300 295 292 289 284 280 281 280 274 263 249 243 240 235 239 237 233 231 229 227 223 224 221 220 218 217 216 216 215 216 226
280 283 283 286 285 286 290 291 296 300 302 301 298 297 295 291 285 280 276 275 273 272 264 250 243 237 237 238 234 233 230 228 225 226 225 220 217 218 219 218 220 222 228
284 271 274 276 278 278 279 278 282 290 293 297 299 298 296 292 287 283 277 269 268 267 267 261 254 244 241 239 237 235 232 230 226 224 225 223 219 221 221 221 222 223 226
284 277 270 272 271 272 271 271 272 275 279 285 286 291 293 293 288 284 279 272 264 262 262 262 256 252 245 243 238 235 235 230 225 223 223 223 221 221 220 221 225 227 229
279 282 280 274 270 268 269 267 268 270 274 279 282 286 287 285 286 282 278 276 268 261 257 256 257 256 255 247 241 237 235 231 225 222 221 222 222 222 222 221 224 228 232
276 277 277 276 268 264 265 268 273 274 274 279 287 280 279 285 283 276 275 271 268 262 257 254 253 254 252 253 246 240 234 232 226 222 219 216 219 221 222 222 222 227 227
277 275 270 270 268 267 267 267 270 275 276 277 276 285 284 285 283 277 289 284 274 266 258 255 252 250 250 248 247 240 236 230 228 222 218 216 213 218 219 222 224 222 221
278 274 271 267 264 261 261 265 268 269 271 275 270 268 280 278 300 286 287 285 281 283 284 268 255 253 250 248 248 245 237 232 229 227 224 207 211 219 219 220 221 214 206
275 271 267 264 263 261 260 261 264 263 257 260 261 259 257 271 281 288 281 286 284 278 281 283 281 261 253 249 249 245 238 234 231 232 224 211 217 217 217 215 213 203 195
271 268 264 264 263 259 258 258 261 259 253 252 253 256 255 257 266 274 283 282 283 278 288 284 298 293 284 255 250 247 240 238 236 233 228 221 220 220 211 208 197 188 177
273 267 263 262 263 260 258 258 256 254 252 249 250 252 255 255 258 264 271 279 284 286 290 290 294 296 310 278 253 246 235 237 239 236 232 224 227 212 203 187 178 174 176
267 265 264 261 259 258 255 257 257 254 250 247 248 250 252 253 259 263 267 272 280 284 287 288 282 284 304 299 269 241 241 242 237 238 234 219 223 195 194 173 169 168 171
272 269 265 264 260 257 257 255 255 249 248 247 247 249 249 252 254 260 260 269 276 283 284 282 289 288 287 297 265 257 233 234 233 232 225 222 196 179 163 160 165 161 161
268 269 265 261 260 259 255 253 252 247 244 245 247 246 246 249 255 258 259 260 265 281 280 285 284 255 295 314 281 264 223 223 227 225 224 197 172 160 153 154 154 147 144
270 268 264 261 257 258 254 250 248 245 245 244 244 245 243 244 249 253 254 260 262 260 270 270 290 311 306 303 278 249 235 211 214 200 167 157 144 139 145 145 142 135 134
266 264 263 260 255 252 248 248 248 242 244 244 240 242 243 243 246 249 248 254 258 259 262 273 290 312 325 318 120 129 140 123 117 125 127 124 126 129 134 130 128 126 122
263 257 254 253 250 249 242 242 241 244 240 238 240 239 241 242 246 251 256 261 260 257 260 272 240 58 60 73 95 107 105 111 107 107 110 114 114 117 120 122 119 114 114
262 257 253 241 243 239 237 235 239 239 239 239 236 236 239 241 249 252 254 256 255 250 245 242 108 95 90 97 90 95 94 96 100 106 108 111 111 109 111 113 110 105 102
263 254 249 244 241 236 227 229 228 237 236 236 241 244 243 244 245 250 249 249 247 239 239 172 131 94 94 87 94 101 83 88 98 100 102 107 111 109 101 94 94 88 91
251 253 246 246 229 231 228 221 222 226 230 238 242 242 241 240 243 243 240 244 238 220 175 159 130 120 85 95 94 102 102 92 85 92 93 95 99 92 89 86 87 84 80
238 243 239 237 226 227 232 225 219 221 223 227 230 234 236 238 236 238 239 247 232 159 164 147 141 123 105 108 111 103 106 103 97 95 93 87 94 91 87 87 86 78 66
27 333 246 223 222 223 229 235 228 211 217 227 234 236 238 240 238 239 253 242 207 170 149 148 130 123 116 110 100 92 86 90 92 100 93 84 75 73 74 75 74 71 60
30 29 35 203 202 216 227 235 228 225 219 230 233 239 240 242 234 106 111 108 102 104 109 113 111 113 118 123 120 116 108 101 98 90 90 87 88 81 76 73 68 66 63
31 37 44 53 114 65 29 67 166 211 228 225 216 216 221 210 136 123 104 99 100 109 113 114 118 116 116 119 120 114 107 111 106 85 90 90 92 97 84 68 56 55 55
40 37 50 56 58 59 64 72 78 74 73 71 69 145 114 121 122 112 108 109 100 101 102 98 95 94 95 94 96 100 113 117 121 104 107 105 129 125 90 65 57 46 40